Regional Weather Roundup
Issued by NWS Cleveland, OH

Home | Current Version | Previous Version | Graphics & Text | Print | Product List | Glossary On
Versions: 1 2 3 4 5 6 7 8 9 10 11 12 13 14 15 16 17 18 19 20 21 22 23 24 25 26 27 28 29 30 31 32 33 34 35 36 37 38 39 40 41 42 43 44 45 46 47 48 49 50
000
ASUS41 KCLE 181210
RWRCLE
OHIO REGIONAL WEATHER ROUNDUP
NATIONAL WEATHER SERVICE WILMINGTON, OH
800 AM EDT FRI APR 18 2014

NOTE: "FAIR" INDICATES FEW OR NO CLOUDS BELOW 12,000 FEET WITH NO
SIGNIFICANT WEATHER AND/OR OBSTRUCTIONS TO VISIBILITY.

OHZ001>008-015>018-024>027-034-035-043-044-181300-
   NORTHWEST OHIO

CITY           SKY/WX    TMP DP  RH WIND       PRES   REMARKS
DEFIANCE       CLOUDY    44  38  79 CALM      30.28R
FINDLAY        PTSUNNY   44  37  76 S6        30.28R
TOLEDO EXPRESS CLOUDY    48  37  65 CALM      30.28R
TOLEDO METCALF CLOUDY    46  37  71 CALM      30.28S
LIMA           MOSUNNY   47  38  71 CALM      30.28R
$$

OHZ009>014-019>023-028>033-038-089-181300-
   NORTHEAST OHIO

CITY           SKY/WX    TMP DP  RH WIND       PRES   REMARKS
CLE-HOPKINS    PTSUNNY   52  29  41 S10       30.30R
CLE-LAKEFRONT  CLOUDY    50  30  46 S13       30.25R
CUY CO. ARPT   CLOUDY    50  30  46 S17       30.28R
LORAIN-ELYRIA  PTSUNNY   49  32  52 SW6       30.28R
ASHTABULA      CLOUDY    44  28  53 S10       30.31R
AKRON-CANTON   CLOUDY    48  28  46 S9        30.29S
WOOSTER        CLOUDY    46  31  55 S3        30.29S
MANSFIELD      CLOUDY    48  32  53 S6        30.28S
YOUNGSTOWN     CLOUDY    44  28  53 SE9       30.30S
$$

OHZ042-051>053-060>062-070>072-077>081-181300-
  SOUTHWEST OHIO

CITY           SKY/WX    TMP DP  RH WIND       PRES   REMARKS
CINC-COVINGTON PTSUNNY   47  37  68 CALM      30.29R
CINC-LUNKEN    PTSUNNY   39  39 100 CALM      30.31R
HAMILTON       PTSUNNY   42  39  89 CALM      30.31R
DAYTON         PTSUNNY   45  35  68 SW3       30.29R
WRIGHT-PAT AFB PTSUNNY   40  37  88 NE1       30.29R
DAYTON GENERAL PTSUNNY   47  35  63 CALM      30.28R
WILMINGTON     CLOUDY    45  34  65 CALM      30.29R
$$

OHZ036-037-039>041-045>050-054>059-063>069-073>076-082>088-181300-
  CENTRAL AND SOUTHEAST OHIO

CITY           SKY/WX    TMP DP  RH WIND       PRES   REMARKS
COLUMBUS       CLOUDY    49  31  49 CALM      30.28S
OSU AIRPORT    CLOUDY    47  33  58 CALM      30.28S
BOLTON FIELD   SUNNY     45  34  65 S3        30.29R
RICKENBACK AFB CLOUDY    44  35  70 CALM      30.28S
NEWARK         CLOUDY    40  36  86 CALM      30.29R
MARION         PTSUNNY   45  33  63 S5        30.29R
LANCASTER      CLOUDY    44  35  70 CALM      30.29R
ZANESVILLE     CLOUDY    45  30  55 SE3       30.29S
NEW PHILLY     CLOUDY    42  34  73 SE5       30.31S
$$



USA.gov is the U.S. government's official web portal to all federal, state and local government web resources and services.